Lapse_Rate
2.7 2.7 2.8 2.7 2.7 3.0 2.8 3.3 3.6 3.4 3.3 3.2 3.2 3.1 3.1 3.1 3.3 3.5 3.5 3.5 3.5 3.5
2.7 2.6 2.6 2.7 2.9 3.0 3.2 3.4 3.3 3.0 2.9 2.9 2.9 2.9 3.1 3.4 3.4 3.4 3.4 3.6 3.6 3.7
2.4 2.4 2.7 2.7 2.9 2.9 3.0 2.9 2.8 2.7 2.8 2.9 3.2 3.3 3.3 3.5 3.7 4.2 4.8 5.1 5.3 5.5
2.4 2.6 2.7 2.7 2.7 2.9 2.9 2.7 2.8 2.9 3.1 3.3 3.3 3.5 3.8 4.6 5.2 5.5 5.7 5.6 5.6 5.6
2.6 2.8 2.5 2.8 2.9 2.8 2.9 3.0 3.1 3.3 3.3 3.4 3.8 4.5 5.2 5.5 5.6 5.5 5.6 5.5 5.5 5.5
2.6 2.8 3.0 3.1 3.1 3.1 3.1 3.3 3.3 3.3 3.4 4.0 4.9 5.4 5.6 5.4 5.4 5.3 5.2 5.2 5.3 5.2
3.0 3.1 3.3 3.3 3.2 3.2 3.2 3.1 3.2 3.6 4.2 4.9 5.3 5.5 5.2 5.2 4.9 4.8 5.0 5.1 5.1 5.1
3.4 3.5 3.3 3.2 3.4 3.1 2.9 3.1 3.6 4.4 5.0 5.4 5.4 5.0 4.9 4.7 4.7 4.7 4.8 4.9 4.9 5.0
3.6 3.4 3.3 3.4 3.1 2.8 3.2 3.8 4.6 5.2 5.4 5.3 5.0 4.7 4.6 4.5 4.5 4.5 4.4 4.8 4.8 4.6
3.4 3.3 3.3 3.0 2.8 3.2 4.0 4.7 5.3 5.6 5.2 4.9 4.8 4.6 4.5 4.2 4.1 4.3 4.5 4.5 4.6 4.6
3.3 3.3 2.9 2.9 3.3 3.9 4.6 5.4 5.5 5.3 4.9 4.8 4.8 4.3 4.2 4.3 4.0 4.0 4.2 4.1 4.3 4.5
3.3 3.0 2.9 3.4 3.8 4.5 5.2 5.5 5.3 5.0 4.8 4.4 4.5 4.5 4.6 4.4 4.0 4.0 4.1 4.4 4.5 4.5
3.0 2.8 3.4 3.9 4.3 4.9 5.1 5.2 4.9 4.9 4.5 4.0 4.5 4.8 4.7 4.3 4.0 4.0 4.2 4.4 4.5 4.5
2.9 3.4 3.7 4.2 4.7 4.8 5.0 4.9 4.8 4.6 4.5 4.7 4.5 4.4 4.4 4.3 3.8 3.9 4.0 4.1 4.3 4.5
Wind_Speed
8 6 7 9 9 9 9 10 19 20 20 22 22 22 22 14 10 14 13 17 14 12
8 10 10 12 14 9 16 16 21 23 22 22 22 23 21 12 15 15 15 16 16 13
10 12 13 14 13 14 19 21 21 21 22 21 22 22 19 14 16 16 13 12 16 15
10 11 14 11 13 15 20 21 18 19 17 17 18 19 16 18 18 18 18 17 17 19
11 12 13 13 14 21 14 22 20 20 17 17 17 18 17 18 18 18 19 19 18 19
12 12 12 14 15 20 17 17 19 17 17 17 18 18 17 18 18 18 19 19 19 19
13 14 13 15 15 15 18 16 17 17 17 18 18 18 19 19 19 20 19 20 21 20
13 14 15 15 15 15 15 15 15 17 17 17 17 14 17 18 18 18 19 19 20 21
13 13 14 14 15 16 16 16 16 16 17 18 14 28 32 28 19 19 19 19 19 18
14 15 14 15 16 16 16 15 17 17 17 19 20 31 32 33 19 19 18 18 18 17
14 15 15 16 16 15 14 16 16 17 18 18 17 32 34 34 21 18 19 20 21 20
14 14 15 15 15 15 15 16 16 15 18 19 20 33 34 30 18 17 19 20 21 21
14 14 15 16 15 13 15 15 13 17 18 24 21 31 33 29 14 16 15 17 18 27
14 13 14 14 14 14 14 15 15 17 17 18 18 21 33 32 17 14 15 14 14 13
Wind_Direction
323 319 313 310 308 303 298 296 298 298 297 296 295 294 293 287 282 279 277 274 269 267
324 321 314 309 305 300 295 296 299 299 295 294 293 290 287 280 280 279 276 273 272 268
317 313 308 308 305 303 302 302 299 296 295 294 291 288 283 279 277 278 274 272 270 269
314 311 308 303 301 298 299 297 294 296 296 293 290 287 284 280 280 275 273 269 267 266
310 311 310 306 304 303 296 296 295 294 291 289 288 287 283 281 277 275 273 271 269 269
315 309 302 300 300 300 298 297 296 295 291 291 289 287 283 278 277 275 272 269 266 264
312 309 302 298 297 297 299 297 295 293 293 289 288 286 283 282 276 270 266 263 260 258
307 302 301 297 300 299 298 295 294 295 292 291 287 285 286 280 275 269 264 257 254 253
308 301 297 301 305 303 301 299 298 296 295 293 288 289 293 294 288 280 277 275 269 262
305 304 309 309 306 305 305 303 300 297 297 291 289 294 296 299 297 289 282 284 282 277
312 313 310 309 305 305 304 304 299 301 297 292 294 297 302 299 295 289 283 282 279 273
317 308 306 305 305 306 304 303 301 300 300 298 296 298 304 304 298 293 286 280 277 273
309 307 305 303 306 305 300 297 305 304 299 297 296 297 305 313 308 299 295 294 287 288
307 305 301 302 304 300 303 305 306 302 299 299 297 307 311 316 316 311 308 310 303 295